When you browse on this site, cookies collect data to enhance your experience and personalize the content and advertising you see.
Visit our Privacy Policy to learn more. By continuing to use the site, you agree to this use of cookies and data.
  • în România
  • Lista ţărilor
  • Pe 7 zile
  • Temperatura apei
  • Hartă satelitară
  • Meteo pe hartă
  • Widget-uri
  • user-avatar
    Intrare

    Meteo pe oră la Vlorë

    Astăzi, 18 Noiembrie, Duminică

    Timp Temperatura Precipitaţii Vânt Presiune Umiditate
    00:00 +9°C° 0.4 mm 5 m/s 762 mmHg 74%
    01:00 +9°C° 0 mm 5 m/s 761 mmHg 76%
    02:00 +9°C° 0.6 mm 5 m/s 761 mmHg 77%
    03:00 +8°C° 0.6 mm 5 m/s 761 mmHg 78%
    04:00 +8°C° 0.6 mm 5 m/s 760 mmHg 78%
    05:00 +8°C° 1.9 mm 5 m/s 760 mmHg 80%
    06:00 +8°C° 1.9 mm 5 m/s 760 mmHg 81%
    07:00 +8°C° 0 mm 5 m/s 759 mmHg 82%
    08:00 +8°C° 3 mm 6 m/s 759 mmHg 81%
    09:00 +8°C° 3 mm 6 m/s 759 mmHg 81%
    10:00 +9°C° 3 mm 7 m/s 759 mmHg 81%
    11:00 +9°C° 2.4 mm 6 m/s 758 mmHg 81%
    12:00 +9°C° 2.4 mm 6 m/s 758 mmHg 81%
    13:00 +9°C° 0 mm 7 m/s 757 mmHg 84%
    14:00 +9°C° 1 mm 7 m/s 757 mmHg 84%
    15:00 +9°C° 1 mm 7 m/s 757 mmHg 85%
    16:00 +9°C° 1 mm 7 m/s 757 mmHg 85%
    17:00 +9°C° 0.2 mm 6 m/s 757 mmHg 85%
    18:00 +9°C° 0.2 mm 5 m/s 757 mmHg 84%
    19:00 +9°C° 0.2 mm 5 m/s 756 mmHg 83%
    20:00 +10°C° 0 mm 4 m/s 757 mmHg 82%
    21:00 +11°C° 0 mm 4 m/s 757 mmHg 81%
    22:00 +11°C° 0 mm 4 m/s 757 mmHg 81%
    23:00 +10°C° 0 mm 4 m/s 757 mmHg 81%

    Mâine, 19 Noiembrie, Luni

    Timp Temperatura Precipitaţii Vânt Presiune Umiditate
    00:00 +10°C° 0 mm 3 m/s 757 mmHg 82%
    01:00 +10°C° 0 mm 3 m/s 757 mmHg 82%
    02:00 +9°C° 0 mm 3 m/s 757 mmHg 82%
    03:00 +9°C° 0 mm 2 m/s 757 mmHg 82%
    04:00 +9°C° 0 mm 2 m/s 758 mmHg 82%
    05:00 +10°C° 0 mm 2 m/s 758 mmHg 82%
    06:00 +10°C° 0 mm 2 m/s 758 mmHg 81%
    07:00 +11°C° 0 mm 1 m/s 758 mmHg 81%
    08:00 +12°C° 0 mm 2 m/s 758 mmHg 75%
    09:00 +14°C° 0 mm 2 m/s 759 mmHg 69%
    10:00 +16°C° 0 mm 3 m/s 759 mmHg 64%
    11:00 +15°C° 0 mm 4 m/s 759 mmHg 62%
    12:00 +16°C° 0 mm 5 m/s 759 mmHg 59%
    13:00 +17°C° 0 mm 6 m/s 759 mmHg 57%
    14:00 +16°C° 0.2 mm 7 m/s 758 mmHg 62%
    15:00 +16°C° 0.2 mm 7 m/s 758 mmHg 67%
    16:00 +15°C° 0.2 mm 8 m/s 758 mmHg 72%
    17:00 +15°C° 0.4 mm 9 m/s 758 mmHg 75%
    18:00 +13°C° 0.4 mm 10 m/s 758 mmHg 78%
    19:00 +13°C° 0.4 mm 10 m/s 758 mmHg 81%
    20:00 +13°C° 1.4 mm 10 m/s 758 mmHg 82%
    21:00 +13°C° 1.4 mm 11 m/s 758 mmHg 83%
    22:00 +13°C° 1.4 mm 11 m/s 758 mmHg 84%
    23:00 +13°C° 1.5 mm 11 m/s 758 mmHg 85%

    Poimâine, 20 Noiembrie, Marţi

    Timp Temperatura Precipitaţii Vânt Presiune Umiditate
    00:00 +13°C° 1.5 mm 12 m/s 758 mmHg 85%
    01:00 +13°C° 1.5 mm 12 m/s 758 mmHg 86%
    02:00 +14°C° 2.2 mm 12 m/s 758 mmHg 86%
    03:00 +14°C° 2.2 mm 12 m/s 758 mmHg 86%
    04:00 +14°C° 2.2 mm 12 m/s 757 mmHg 86%
    05:00 +14°C° 3 mm 12 m/s 757 mmHg 86%
    06:00 +14°C° 3 mm 12 m/s 757 mmHg 86%
    07:00 +14°C° 3 mm 12 m/s 757 mmHg 86%
    08:00 +14°C° 2.4 mm 12 m/s 758 mmHg 86%
    09:00 +15°C° 2.4 mm 12 m/s 758 mmHg 86%
    10:00 +15°C° 2.4 mm 12 m/s 758 mmHg 86%
    11:00 +15°C° 1.6 mm 12 m/s 758 mmHg 87%
    12:00 +15°C° 1.6 mm 12 m/s 757 mmHg 88%
    13:00 +16°C° 1.6 mm 11 m/s 757 mmHg 89%
    14:00 +16°C° 1.3 mm 11 m/s 757 mmHg 88%
    15:00 +16°C° 1.3 mm 11 m/s 757 mmHg 88%
    16:00 +16°C° 1.3 mm 11 m/s 757 mmHg 87%
    17:00 +16°C° 1.2 mm 11 m/s 757 mmHg 88%
    18:00 +16°C° 1.2 mm 10 m/s 757 mmHg 88%
    19:00 +16°C° 1.2 mm 10 m/s 757 mmHg 89%
    20:00 +14°C° 1.2 mm 10 m/s 757 mmHg 88%
    21:00 +15°C° 1.2 mm 9 m/s 756 mmHg 87%
    22:00 +15°C° 1.2 mm 9 m/s 756 mmHg 86%
    23:00 +15°C° 2.8 mm 9 m/s 756 mmHg 88%

    21 Noiembrie, Miercuri

    Timp Temperatura Precipitaţii Vânt Presiune Umiditate
    00:00 +15°C° 2.8 mm 8 m/s 756 mmHg 89%
    01:00 +15°C° 2.8 mm 8 m/s 755 mmHg 91%
    02:00 +15°C° 1.8 mm 7 m/s 755 mmHg 90%
    03:00 +15°C° 1.8 mm 6 m/s 755 mmHg 90%
    04:00 +15°C° 1.8 mm 6 m/s 755 mmHg 90%
    05:00 +15°C° 0.8 mm 5 m/s 755 mmHg 91%
    06:00 +14°C° 0.8 mm 5 m/s 756 mmHg 91%
    07:00 +14°C° 0.8 mm 5 m/s 756 mmHg 92%
    08:00 +14°C° 0.6 mm 4 m/s 757 mmHg 90%
    09:00 +15°C° 0.6 mm 4 m/s 757 mmHg 89%
    10:00 +15°C° 0.6 mm 4 m/s 758 mmHg 87%
    11:00 +17°C° 0.5 mm 4 m/s 758 mmHg 84%
    12:00 +17°C° 0.5 mm 4 m/s 758 mmHg 81%
    13:00 +17°C° 0.5 mm 4 m/s 758 mmHg 78%
    14:00 +17°C° 0.6 mm 4 m/s 758 mmHg 80%
    15:00 +17°C° 0.6 mm 4 m/s 758 mmHg 83%
    16:00 +15°C° 0.6 mm 4 m/s 758 mmHg 85%
    17:00 +15°C° 0.6 mm 5 m/s 759 mmHg 87%
    18:00 +15°C° 0.6 mm 5 m/s 759 mmHg 89%
    19:00 +15°C° 0.6 mm 5 m/s 759 mmHg 91%
    20:00 +15°C° 0.5 mm 5 m/s 760 mmHg 91%
    21:00 +15°C° 0.5 mm 5 m/s 760 mmHg 91%
    22:00 +15°C° 0.5 mm 5 m/s 761 mmHg 92%
    23:00 +15°C° 0.4 mm 5 m/s 761 mmHg 92%

    22 Noiembrie, Joi

    Timp Temperatura Precipitaţii Vânt Presiune Umiditate
    00:00 +14°C° 0.4 mm 5 m/s 761 mmHg 91%
    01:00 +14°C° 0.4 mm 5 m/s 761 mmHg 91%
    02:00 +14°C° 0.2 mm 5 m/s 761 mmHg 91%
    03:00 +14°C° 0.2 mm 5 m/s 761 mmHg 90%
    04:00 +14°C° 0.2 mm 4 m/s 762 mmHg 90%
    05:00 +14°C° 0.1 mm 4 m/s 762 mmHg 90%
    06:00 +14°C° 0.1 mm 4 m/s 762 mmHg 89%
    07:00 +13°C° 0.1 mm 4 m/s 763 mmHg 89%
    08:00 +15°C° 0.1 mm 4 m/s 763 mmHg 83%
    09:00 +17°C° 0.1 mm 4 m/s 763 mmHg 78%
    10:00 +18°C° 0.1 mm 4 m/s 764 mmHg 73%
    11:00 +18°C° 0 mm 4 m/s 764 mmHg 71%
    12:00 +19°C° 0 mm 4 m/s 764 mmHg 69%
    13:00 +19°C° 0 mm 5 m/s 763 mmHg 67%
    14:00 +17°C° 0 mm 5 m/s 764 mmHg 70%
    15:00 +17°C° 0 mm 5 m/s 764 mmHg 73%
    16:00 +17°C° 0 mm 4 m/s 764 mmHg 76%
    17:00 +15°C° 0.1 mm 4 m/s 764 mmHg 78%
    18:00 +15°C° 0.1 mm 4 m/s 765 mmHg 80%
    19:00 +14°C° 0.1 mm 4 m/s 765 mmHg 83%
    20:00 +14°C° 0 mm 4 m/s 766 mmHg 82%
    21:00 +13°C° 0 mm 4 m/s 766 mmHg 82%
    22:00 +13°C° 0 mm 3 m/s 766 mmHg 81%
    23:00 +13°C° 0 mm 3 m/s 766 mmHg 80%

    23 Noiembrie, Vineri

    Timp Temperatura Precipitaţii Vânt Presiune Umiditate
    00:00 +13°C° 0 mm 3 m/s 766 mmHg 80%
    01:00 +12°C° 0 mm 4 m/s 767 mmHg 79%
    02:00 +12°C° 0 mm 4 m/s 767 mmHg 78%
    03:00 +12°C° 0 mm 4 m/s 767 mmHg 78%
    04:00 +12°C° 0 mm 4 m/s 767 mmHg 77%
    05:00 +12°C° 0 mm 3 m/s 767 mmHg 77%
    06:00 +12°C° 0 mm 3 m/s 767 mmHg 76%
    07:00 +12°C° 0 mm 3 m/s 768 mmHg 76%
    08:00 +13°C° 0 mm 3 m/s 768 mmHg 70%
    09:00 +16°C° 0 mm 3 m/s 768 mmHg 64%
    10:00 +17°C° 0 mm 3 m/s 768 mmHg 58%
    11:00 +18°C° 0 mm 3 m/s 768 mmHg 55%
    12:00 +19°C° 0 mm 3 m/s 768 mmHg 52%
    13:00 +19°C° 0 mm 4 m/s 768 mmHg 49%
    14:00 +18°C° 0 mm 4 m/s 768 mmHg 54%
    15:00 +18°C° 0 mm 4 m/s 768 mmHg 59%
    16:00 +17°C° 0 mm 4 m/s 768 mmHg 64%
    17:00 +15°C° 0 mm 4 m/s 768 mmHg 66%
    18:00 +14°C° 0 mm 4 m/s 768 mmHg 69%
    19:00 +13°C° 0 mm 3 m/s 768 mmHg 71%
    20:00 +13°C° 0 mm 3 m/s 768 mmHg 71%
    21:00 +13°C° 0 mm 3 m/s 768 mmHg 71%
    22:00 +13°C° 0 mm 3 m/s 769 mmHg 71%
    23:00 +12°C° 0 mm 3 m/s 768 mmHg 72%
    Arată mai mult